Tracking 28091 objects as of 30-Sep-2023
HD Live streaming from Space Station
objects crossing your sky now

COSMOS 1375 DEB

Track COSMOS 1375 DEB now!
10-day predictions


NORAD ID: 17799
Int'l Code: 1982-055AR
Perigee: 900.6 km
Apogee: 943.7 km
Inclination: 65.8 °
Period: 103.3 minutes
Semi major axis: 7293 km
RCS: 0.043 m2 (small)
Launch date: June 6, 1982
Source: Commonwealth of Independent States (former USSR) (CIS)
Launch site: PLESETSK MISSILE AND SPACE COMPLEX (PKMTR)

Note: This is SATELLITE DEBRIS
Your satellite tracking list
Your tracking list is empty




NASA's NSSDC Master Catalog

Two Line Element Set (TLE):
1 17799U 82055AR  23272.59131955  .00000848  00000-0  70306-3 0  9996
2 17799  65.8394 332.0840 0029513 205.8077 279.8990 13.93892063921515
Source of the keplerian elements: AFSPC